Regional Weather Roundup
Issued by NWS Sioux Falls, SD

Home | Current Version | Previous Version | Text Only | Print | Product List | Glossary On
Versions: 1 2 3 4 5 6 7 8 9 10 11 12 13 14 15 16 17 18 19 20 21 22 23 24 25 26 27 28 29 30 31 32 33 34 35 36 37 38 39 40 41 42 43 44 45 46 47 48 49 50
000
ASUS43 KFSD 271202
RWRFSD

WEATHER ROUNDUP FOR SE SOUTH DAKOTA/SW MINNESOTA/NW IOWA
NATIONAL WEATHER SERVICE SIOUX FALLS SD
700 AM CDT MON APR 27 2015

NOTE: "FAIR" INDICATES FEW OR NO CLOUDS BELOW 12,000 FEET WITH NO
SIGNIFICANT WEATHER AND OR OBSTRUCTIONS TO VISIBILITY.


SDZ038>040-050-052>070-271300-
SOUTHEAST SOUTH DAKOTA

CITY           SKY/WX    TMP DP  RH WIND       PRES   REMARKS
BROOKINGS      CLEAR     30  25  80 CALM      30.22R
CHAMBERLAIN    NOT AVBL
HURON          CLEAR     31  25  78 CALM      30.20R
6HR MIN TEMP:  28; 6HR MAX TEMP:  46;

MADISON        FAIR      32  23  69 CALM      30.20R
MITCHELL       CLEAR     37  32  82 NW3       30.21R
6HR MIN TEMP:  36; 6HR MAX TEMP:  47;

SIOUX FALLS    PTCLDY    34  27  75 NE5       30.20R WCI  30
6HR MIN TEMP:  32; 6HR MAX TEMP:  45;

WINNER         FAIR      43  29  57 SW6       30.20R
YANKTON        PTCLDY    39  27  60 E3        30.20R
$$

MNZ071-072-080-081-089-090-097-098-271300-
SOUTHWEST MINNESOTA

CITY           SKY/WX    TMP DP  RH WIND       PRES   REMARKS
FAIRMONT       CLEAR     36  25  64 NW6       30.19R
JACKSON        CLEAR     32  23  69 NW3       30.21R
LUVERNE        CLEAR     36  27  69 CALM      30.22R
MARSHALL       CLEAR     30  19  64 CALM      30.21R
6HR MIN TEMP:  30; 6HR MAX TEMP:  43;

MONTEVIDEO     CLEAR     36  21  55 NW5       30.22S
REDWOOD FALLS  CLEAR     36  23  59 CALM      30.21R
TRACY          CLEAR     35  22  58 CALM      30.21S
WORTHINGTON    CLEAR     34  19  55 NW6       30.21R WCI  29
$$

IAZ001>003-012>014-020>022-031-032-NEZ013-014-SDZ071-271300-
NORTHWEST IOWA

CITY           SKY/WX    TMP DP  RH WIND       PRES   REMARKS
DENISON        FAIR      32  32 100 CALM      30.17R
ESTHERVILLE    CLEAR     31  23  72 NW6       30.19R WCI  25
LE MARS        CLEAR     34  30  86 CALM      30.22R
SIOUX CITY     PTCLDY    34  28  79 W3        30.20R
6HR MIN TEMP:  33; 6HR MAX TEMP:  47;

SPENCER        CLEAR     31  26  82 NW6       30.21R WCI  25
6HR MIN TEMP:  29; 6HR MAX TEMP:  42;

$$

ABBREVIATIONS USED IN REMARKS
   TC - TEMPERATURE IN CELSIUS
  WCI - WIND CHILL INDEX
   HX - HEAT INDEX
  VSB - VISIBILITY



USA.gov is the U.S. government's official web portal to all federal, state and local government web resources and services.